FW1688 Weather Reports


time (UTC)temp
C
wind
direction
speed
KPH
gust
KPH
rain 1hr
cm
rain 24hr
cm
rain mn
cm
humidity
%
barometer
mb
20200531081519 23 137 0.0 0.0 0.00 0.00 0.00 91 1014.5
20200531080013 23 137 0.0 0.0 0.00 0.00 0.00 91 1014.5
20200531074502 23 137 0.0 0.0 0.00 0.00 0.00 91 1014.4
20200531073213 23 137 0.0 0.0 0.00 0.00 0.00 90 1014.5
20200531071703 23 137 0.0 0.0 0.00 0.00 0.00 90 1014.6
20200531070110 23 137 0.0 0.0 0.00 0.00 0.00 90 1014.7
20200531064700 24 137 0.0 0.0 0.00 0.00 0.00 89 1014.9
20200531063139 24 137 0.0 0.0 0.00 0.00 0.00 89 1015.1
20200531061623 24 137 0.0 0.0 0.00 0.00 0.00 88 1015.2
20200531060125 24 137 0.0 0.0 0.00 0.00 0.00 87 1015.3
20200531054653 25 137 0.0 0.0 0.00 0.00 0.00 87 1015.5
20200531053122 25 137 0.0 0.0 0.00 0.00 0.00 86 1015.7
20200531051603 25 137 0.0 0.0 0.00 0.00 0.00 84 1015.8
20200531050058 25 137 0.0 0.0 0.00 0.00 0.00 83 1016.1
20200531044712 25 138 0.0 0.0 0.00 0.00 0.00 83 1016.2
20200531043056 26 138 0.0 0.0 0.00 0.00 0.00 82 1016.2
20200531041647 26 143 0.0 1.6 0.00 0.00 0.00 81 1016.2
20200531040058 26 159 0.0 0.0 0.00 0.00 0.00 81 1016.3
20200531034536 26 118 0.0 3.2 0.00 0.00 0.00 81 1016.4
20200531033106 26 151 0.0 3.2 0.00 0.00 0.00 81 1016.6
20200531031530 26 154 0.0 1.6 0.00 0.00 0.00 80 1016.7
20200531030105 26 150 0.0 3.2 0.00 0.00 0.00 80 1016.6
20200531024538 26 170 0.0 6.4 0.00 0.00 0.00 80 1016.5
20200531023038 26 129 0.0 9.7 0.00 0.00 0.00 80 1016.4
20200531021542 26 117 0.0 6.4 0.00 0.00 0.00 80 1016.3
20200531020049 27 143 3.2 11.3 0.00 0.00 0.00 80 1016.3
20200531014541 27 154 1.6 9.7 0.00 0.23 0.00 80 1015.8
20200531013105 27 103 0.0 8.0 0.00 0.23 0.00 79 1015.7
20200531011542 27 104 1.6 9.7 0.00 0.23 0.00 79 1015.5
20200531004524 27 172 0.0 8.0 0.00 0.23 0.00 78 1015.3
20200531003024 27 167 0.0 8.0 0.00 0.23 0.00 78 1015.2
20200531001616 27 108 6.4 14.5 0.00 0.23 0.00 77 1015.1
20200531000031 27 134 3.2 14.5 0.00 0.23 0.00 75 1014.5
20200530234548 27 88 1.6 14.5 0.00 0.23 0.00 74 1014.4
20200530233021 27 134 4.8 11.3 0.00 0.23 0.00 75 1014.2
20200530231529 28 96 4.8 14.5 0.00 0.23 0.00 73 1014.1
20200530230052 28 103 3.2 12.9 0.00 0.23 0.00 72 1014.0
20200530223030 28 155 6.4 14.5 0.00 0.23 0.00 69 1014.3
20200530221516 29 98 4.8 14.5 0.00 0.23 0.00 65 1014.2
20200530220019 30 99 1.6 12.9 0.00 0.23 0.00 66 1014.2
20200530214547 30 122 4.8 16.1 0.00 0.23 0.00 66 1014.0
20200530213041 30 130 4.8 12.9 0.00 0.23 0.00 66 1013.9
20200530211531 30 229 4.8 16.1 0.00 0.23 0.00 66 1013.9
20200530210025 30 116 4.8 14.5 0.00 0.23 0.00 65 1014.0
20200530204524 30 94 1.6 12.9 0.00 0.23 0.00 64 1014.1
20200530203046 31 145 6.4 12.9 0.00 0.23 0.00 61 1014.2
20200530201507 31 123 3.2 9.7 0.00 0.23 0.00 63 1014.4
20200530200006 31 127 6.4 12.9 0.00 0.23 0.00 64 1014.6
20200530194519 31 109 4.8 11.3 0.00 0.23 0.00 61 1014.7
20200530193002 31 83 3.2 12.9 0.00 0.23 0.00 62 1014.9
20200530191501 31 84 3.2 14.5 0.00 0.23 0.00 64 1015.0
20200530190138 30 100 4.8 14.5 0.00 0.23 0.00 66 1015.1
20200530184645 30 146 1.6 14.5 0.00 0.23 0.00 65 1015.2
20200530183308 30 75 6.4 17.7 0.00 0.23 0.00 66 1015.4
20200530181617 31 208 6.4 14.5 0.00 0.23 0.00 62 1015.4
20200530180116 31 103 3.2 12.9 0.00 0.23 0.00 62 1015.4
20200530174619 31 140 6.4 14.5 0.00 0.23 0.00 62 1015.5
20200530173339 31 147 4.8 16.1 0.00 0.23 0.00 65 1015.6
20200530171737 31 188 4.8 14.5 0.00 0.23 0.00 61 1015.9
20200530170106 31 108 3.2 12.9 0.00 0.23 0.00 66 1016.0
20200530164631 30 77 6.4 16.1 0.00 0.23 0.00 65 1016.1
20200530163156 31 120 3.2 14.5 0.00 0.23 0.00 64 1016.1
20200530161627 31 153 4.8 12.9 0.00 0.23 0.00 65 1016.1
20200530160130 31 143 3.2 14.5 0.00 0.23 0.00 64 1016.2
20200530154612 30 161 3.2 17.7 0.00 0.23 0.00 66 1016.2
20200530153130 30 116 1.6 17.7 0.00 0.23 0.00 65 1016.4
20200530151614 30 121 3.2 12.9 0.00 0.23 0.00 63 1016.4
20200530150220 30 151 3.2 12.9 0.00 0.23 0.00 67 1016.4
20200530144636 30 83 1.6 16.1 0.00 0.23 0.00 69 1016.5
20200530143144 30 93 3.2 11.3 0.00 0.23 0.00 69 1016.6
20200530141623 29 132 4.8 12.9 0.00 0.23 0.00 69 1016.6
20200530140128 29 138 1.6 14.5 0.00 0.23 0.00 70 1016.7
20200530134608 28 114 0.0 6.4 0.00 0.23 0.00 76 1016.7
20200530133041 27 155 0.0 8.0 0.00 0.23 0.00 77 1016.6
20200530131548 27 142 1.6 8.0 0.00 0.23 0.00 77 1016.6
20200530130033 27 186 1.6 11.3 0.00 0.23 0.00 75 1016.6
20200530124539 28 84 1.6 11.3 0.00 0.23 0.00 74 1016.5
20200530123053 28 122 0.0 6.4 0.00 0.23 0.00 74 1016.4
20200530121626 28 108 1.6 9.7 0.00 0.23 0.00 76 1016.4
20200530120040 27 181 1.6 9.7 0.00 0.23 0.00 77 1016.4
20200530114530 27 114 0.0 0.0 0.00 0.23 0.00 80 1016.2
20200530113027 26 147 0.0 6.4 0.00 0.23 0.00 83 1016.1
20200530111526 25 140 0.0 1.6 0.00 0.23 0.00 85 1015.7
20200530110032 25 154 0.0 0.0 0.00 0.23 0.00 85 1015.8
20200530104524 25 146 0.0 3.2 0.00 0.23 0.00 84 1015.8
20200530103026 25 134 0.0 0.0 0.00 0.23 0.00 85 1015.6
20200530101527 25 162 0.0 1.6 0.00 0.23 0.00 84 1015.5
20200530100058 26 136 0.0 4.8 0.00 0.23 0.00 84 1015.4
20200530094525 26 129 0.0 4.8 0.00 0.23 0.00 84 1015.1
20200530093023 26 123 0.0 3.2 0.00 0.23 0.00 85 1015.0
20200530091509 26 112 0.0 4.8 0.00 0.23 0.00 85 1015.1
20200530090010 26 132 0.0 3.2 0.00 0.23 0.00 85 1015.3
20200530084529 26 137 0.0 4.8 0.00 0.23 0.00 86 1015.4
20200530083007 26 94 0.0 0.0 0.00 0.23 0.00 86 1015.4